This demonstration page uses our WeatherBlox Daily Observations layout. Learn more.

Left ArrowRight Arrow

39.01783, -85.05884

Hourly Observations for September 10, 2020

Temp ( °F °C ) Dew Point ( °F °C ) Humidity (%) Winds ( mph kmh ) Pressure ( in mb ) Visibility ( mi km ) Precip ( " mm )
12:52 am 00:52 Mostly Clear 72 22.2 64 17.8 76 76 Calm 30.18 1022 10 16 0.00 0.00
1:52 am 01:52 Mostly Clear 74 23.3 64 17.8 71 71 Calm 30.18 1022 10 16 0.00 0.00
2:52 am 02:52 Mostly Clear 69 20.6 64 17.8 84 84 Calm 30.17 1022 10 16 0.00 0.00
3:52 am 03:52 Mostly Clear 71 21.7 65 18.3 81 81 Calm 30.16 1022 10 16 0.00 0.00
4:52 am 04:52 Mostly Clear 70 21.1 65 18.3 84 84 Calm 30.18 1022 10 16 0.00 0.00
5:52 am 05:52 Mostly Clear 70 21.1 65 18.3 84 84 N 3 6 30.18 1022 10 16 0.00 0.00
6:52 am 06:52 Partly Cloudy 71 21.7 65 18.3 81 81 NNE 6 9 30.19 1022 10 16 0.00 0.00
7:52 am 07:52 Mostly Sunny 71 21.7 65 18.3 81 81 N 3 6 30.20 1023 10 16 0.00 0.00
8:52 am 08:52 Mostly Sunny 75 23.9 67 19.4 76 76 Calm 30.21 1023 10 16 0.00 0.00
9:52 am 09:52 Mostly Sunny 79 26.1 68 20 69 69 ENE 5 7 30.21 1023 10 16 0.00 0.00
10:52 am 10:52 Mostly Sunny 83 28.3 67 19.4 59 59 VRB 5 7 30.21 1023 10 16 0.00 0.00
11:52 am 11:52 Partly Cloudy 85 29.4 67 19.4 55 55 NE 6 9 30.20 1023 10 16 0.00 0.00
12:52 pm 12:52 Mostly Cloudy 83 28.3 67 19.4 59 59 N 7 11 30.20 1023 10 16 0.00 0.00
1:52 pm 13:52 Mostly Cloudy 88 31.1 67 19.4 50 50 VRB 5 7 30.18 1022 10 16 0.00 0.00
2:52 pm 14:52 Mostly Cloudy 88 31.1 67 19.4 50 50 VRB 7 11 30.17 1022 10 16 0.00 0.00
3:52 pm 15:52 Partly Cloudy 88 31.1 65 18.3 46 46 NNW 6 9 30.15 1021 10 16 0.00 0.00
4:52 pm 16:52 Partly Cloudy 87 30.6 65 18.3 48 48 VRB 5 7 30.15 1021 10 16 0.00 0.00
5:52 pm 17:52 Mostly Cloudy 84 28.9 68 20 59 59 NNW 14 22 30.15 1021 10 16 0.00 0.00
6:52 pm 18:52 Mostly Cloudy 82 27.8 66 18.9 58 58 N 14 22 30.16 1021 10 16 0.00 0.00
7:52 pm 19:52 Mostly Cloudy 80 26.7 66 18.9 62 62 N 12 19 30.16 1021 10 16 0.00 0.00
8:52 pm 20:52 Cloudy 77 25 67 19.4 71 71 N 13 20 30.17 1022 10 16 0.00 0.00
9:52 pm 21:52 Mostly Cloudy 75 23.9 67 19.4 76 76 N 10 17 30.18 1022 10 16 0.00 0.00
10:52 pm 22:52 Cloudy 75 23.9 67 19.4 76 76 N 9 15 30.19 1022 10 16 0.00 0.00
11:52 pm 23:52 Cloudy 75 23.9 67 19.4 76 76 N 12 19 30.19 1022 10 16 0.00 0.00

Powered by AerisWeather